Weather History for Orange City, IA

Change the Weather History Date:

Thursday, March 6, 2014

  Actual Average Record
Temperature  
Mean Temperature 27 °F -  
Max Temperature 35 °F 31 °F 71 °F (2005)
Min Temperature 19 °F 17 °F 3 °F (2003)
Degree Days  
Heating Degree Days 38    
Moisture  
Dew Point 23 °F    
Average Humidity 82    
Maximum Humidity 93    
Minimum Humidity 74    
Precipitation  
Precipitation 0.00 in - - ()
Sea Level Pressure  
Sea Level Pressure 29.96 in    
Wind  
Wind Speed 14 mph (South)    
Max Wind Speed 26 mph    
Max Gust Speed 32 mph    
Visibility 4 miles    
Events      
Averages and records for this station are not official NWS values.
T = Trace of Precipitation, MM = Missing Value Source: NWS Daily Summary

Daily Weather History Graph

Daily Weather History Graph

Search for Another Location

Airport:

Trip Planner

Search our weather history database for the weather conditions in past years. The results will help you decide how hot, cold, wet, or windy it might be!

Date:

Astronomy

Mar. 06, 2014 Rise Set
Actual Time 6:51 AM CST 6:19 PM CST
Civil Twilight 6:23 AM CST 6:48 PM CST
Nautical Twilight 5:50 AM CST 7:21 PM CST
Astronomical Twilight 5:17 AM CST 7:54 PM CST
Moon 9:51 AM CST (3/6) No Moon Set
Length of Visible Light 12h 24m
Length of Day
11h 28m
Waxing Crescent, 32% of the Moon is Illuminated
Mar 6
Waxing Crescent
Mar 8
First Quarter
Mar 16
Full
Mar 23
Last Quarter
Mar 30
New

Hourly Weather History & Observations

Time (CST) Temp. Windchill Dew Point Humidity Pressure Visibility Wind Dir Wind Speed Gust Speed Precip Events Conditions
12:15 AM 19.4 °F 8.6 °F 15.8 °F 86% 30.25 in 4.0 mi South 9.2 mph - N/A   Overcast
12:35 AM 19.4 °F 6.6 °F 15.8 °F 86% 30.24 in 4.0 mi South 12.7 mph 17.3 mph N/A   Overcast
12:55 AM 19.4 °F 6.6 °F 15.8 °F 86% 30.23 in 4.0 mi South 12.7 mph 17.3 mph N/A   Overcast
1:15 AM 19.4 °F 7.9 °F 17.6 °F 93% 30.22 in 4.0 mi South 10.4 mph - N/A   Overcast
1:35 AM 19.4 °F 7.9 °F 17.6 °F 93% 30.22 in 4.0 mi South 10.4 mph - N/A   Overcast
1:55 AM 19.4 °F 6.6 °F 17.6 °F 93% 30.20 in 4.0 mi South 12.7 mph - N/A   Overcast
2:15 AM 19.4 °F 7.2 °F 17.6 °F 93% 30.19 in 3.0 mi South 11.5 mph - N/A   Overcast
2:35 AM 21.2 °F 8.9 °F 17.6 °F 86% 30.18 in 3.0 mi South 12.7 mph 17.3 mph N/A   Overcast
2:55 AM 21.2 °F 9.5 °F 17.6 °F 86% 30.17 in 4.0 mi South 11.5 mph - N/A   Overcast
3:15 AM 21.2 °F 8.3 °F 17.6 °F 86% 30.18 in 4.0 mi South 13.8 mph - N/A   Overcast
3:35 AM 21.2 °F 7.8 °F 17.6 °F 86% 30.16 in 4.0 mi South 15.0 mph 19.6 mph N/A   Overcast
3:55 AM 21.2 °F 7.3 °F 17.6 °F 86% 30.15 in 4.0 mi South 16.1 mph 21.9 mph N/A   Overcast
4:15 AM 21.2 °F 8.3 °F 17.6 °F 86% 30.15 in 4.0 mi South 13.8 mph - N/A   Overcast
4:35 AM 21.2 °F 8.9 °F 17.6 °F 86% 30.15 in 3.0 mi South 12.7 mph - N/A   Overcast
4:55 AM 21.2 °F 8.9 °F 17.6 °F 86% 30.15 in 3.0 mi South 12.7 mph - N/A   Overcast
5:15 AM 21.2 °F 6.8 °F 17.6 °F 86% 30.14 in 3.0 mi South 17.3 mph - N/A   Overcast
5:35 AM 21.2 °F 9.5 °F 17.6 °F 86% 30.13 in 4.0 mi South 11.5 mph 19.6 mph N/A   Overcast
5:55 AM 21.2 °F 8.9 °F 17.6 °F 86% 30.11 in 3.0 mi South 12.7 mph - N/A   Overcast
6:15 AM 21.2 °F 8.9 °F 17.6 °F 86% 30.11 in 3.0 mi South 12.7 mph - N/A   Overcast
6:35 AM 21.2 °F 9.5 °F 19.4 °F 93% 30.11 in 3.0 mi South 11.5 mph - N/A   Overcast
6:55 AM 21.2 °F 8.9 °F 19.4 °F 93% 30.11 in 3.0 mi South 12.7 mph - N/A   Overcast
7:15 AM 21.2 °F 8.3 °F 19.4 °F 93% 30.09 in 2.0 mi South 13.8 mph 18.4 mph N/A   Overcast
7:35 AM 21.2 °F 8.9 °F 19.4 °F 93% 30.08 in 2.0 mi South 12.7 mph - N/A   Overcast
7:55 AM 21.2 °F 6.8 °F 19.4 °F 93% 30.06 in 2.5 mi South 17.3 mph 24.2 mph N/A   Overcast
8:15 AM 23.0 °F 9.2 °F 19.4 °F 86% 30.07 in 2.5 mi South 17.3 mph 24.2 mph N/A   Overcast
8:35 AM 23.0 °F 8.7 °F 19.4 °F 86% 30.06 in 2.5 mi South 18.4 mph 23.0 mph N/A   Overcast
8:55 AM 23.0 °F 8.7 °F 19.4 °F 86% 30.05 in 2.0 mi South 18.4 mph 24.2 mph N/A   Overcast
9:15 AM 24.8 °F 11.5 °F 19.4 °F 80% 30.05 in 2.0 mi South 17.3 mph 24.2 mph N/A   Overcast
9:35 AM 24.8 °F 12.9 °F 19.4 °F 80% 30.05 in 1.8 mi South 13.8 mph 24.2 mph N/A   Overcast
9:55 AM 24.8 °F 11.9 °F 19.4 °F 80% 30.03 in 2.5 mi South 16.1 mph 23.0 mph N/A   Overcast
10:15 AM 24.8 °F 10.7 °F 21.2 °F 86% 30.02 in 2.0 mi South 19.6 mph - N/A   Overcast
10:35 AM 26.6 °F 13.4 °F 21.2 °F 80% 30.01 in 2.5 mi South 18.4 mph 25.3 mph N/A   Haze
10:55 AM 26.6 °F 14.3 °F 21.2 °F 80% 30.00 in 2.5 mi South 16.1 mph 23.0 mph N/A   Overcast
11:15 AM 26.6 °F 13.4 °F 21.2 °F 80% 30.00 in 2.5 mi South 18.4 mph 25.3 mph N/A   Haze
11:35 AM 28.4 °F 15.1 °F 21.2 °F 74% 29.98 in 3.0 mi South 20.7 mph 25.3 mph N/A   Haze
11:55 AM 28.4 °F 14.7 °F 23.0 °F 80% 29.96 in 3.0 mi South 21.9 mph 31.1 mph N/A   Haze
12:15 PM 28.4 °F 13.5 °F 23.0 °F 80% 29.95 in 3.0 mi South 26.5 mph 29.9 mph N/A   Haze
12:35 PM 28.4 °F 14.7 °F 24.8 °F 86% 29.94 in 3.0 mi South 21.9 mph 28.8 mph N/A   Haze
12:55 PM 30.2 °F 16.8 °F 24.8 °F 80% 29.91 in 3.0 mi South 23.0 mph 31.1 mph N/A   Haze
1:15 PM 30.2 °F 16.8 °F 24.8 °F 80% 29.89 in 3.0 mi South 23.0 mph 31.1 mph N/A   Haze
1:35 PM 32.0 °F 19.5 °F 26.6 °F 80% 29.89 in 3.0 mi South 21.9 mph 32.2 mph N/A   Haze
1:55 PM 32.0 °F 20.5 °F 26.6 °F 80% 29.87 in 4.0 mi South 18.4 mph 27.6 mph N/A   Haze
2:10 PM 33.8 °F 21.6 °F 26.6 °F 75% 29.86 in 4.0 mi South 23.0 mph 26.5 mph N/A   Haze
2:35 PM 33.8 °F 22.5 °F 26.6 °F 75% 29.85 in 4.0 mi South 19.6 mph - N/A   Haze
2:55 PM 33.8 °F 22.2 °F 26.6 °F 75% 29.84 in 4.0 mi South 20.7 mph 27.6 mph N/A   Haze
3:15 PM 35.6 °F 24.8 °F 28.4 °F 75% 29.84 in 5.0 mi South 19.6 mph - N/A   Haze
3:35 PM 35.6 °F 24.5 °F 28.4 °F 75% 29.83 in 5.0 mi South 20.7 mph 27.6 mph N/A   Haze
3:55 PM 35.6 °F 25.2 °F 28.4 °F 75% 29.82 in 5.0 mi South 18.4 mph 25.3 mph N/A   Haze
4:15 PM 33.8 °F 23.5 °F 28.4 °F 81% 29.83 in 4.0 mi South 16.1 mph 24.2 mph N/A   Haze
4:35 PM 33.8 °F 23.2 °F 28.4 °F 81% 29.82 in 4.0 mi South 17.3 mph 23.0 mph N/A   Haze
4:55 PM 33.8 °F 23.2 °F 28.4 °F 81% 29.82 in 4.0 mi South 17.3 mph 23.0 mph N/A   Haze
5:15 PM 33.8 °F 23.5 °F 28.4 °F 81% 29.80 in 4.0 mi South 16.1 mph 21.9 mph N/A   Haze
5:35 PM 33.8 °F 23.2 °F 26.6 °F 75% 29.80 in 4.0 mi South 17.3 mph 21.9 mph N/A   Haze
5:50 PM 33.8 °F 22.8 °F 26.6 °F 75% 29.79 in 4.0 mi South 18.4 mph - N/A   Haze
6:15 PM 33.8 °F 24.8 °F 26.6 °F 75% 29.80 in 4.0 mi South 12.7 mph - N/A   Haze
6:35 PM 33.8 °F 24.8 °F 26.6 °F 75% 29.79 in 5.0 mi South 12.7 mph - N/A   Haze
6:55 PM 33.8 °F 24.8 °F 26.6 °F 75% 29.79 in 5.0 mi South 12.7 mph 19.6 mph N/A   Haze
7:15 PM 33.8 °F 24.8 °F 26.6 °F 75% 29.79 in 5.0 mi South 12.7 mph - N/A   Haze
7:35 PM 33.8 °F 24.8 °F 26.6 °F 75% 29.79 in 5.0 mi South 12.7 mph - N/A   Haze
7:55 PM 33.8 °F 24.8 °F 26.6 °F 75% 29.78 in 5.0 mi South 12.7 mph - N/A   Haze
8:15 PM 33.8 °F 24.3 °F 26.6 °F 75% 29.79 in 5.0 mi South 13.8 mph 20.7 mph N/A   Haze
8:35 PM 33.8 °F 24.8 °F 26.6 °F 75% 29.78 in 5.0 mi South 12.7 mph 21.9 mph N/A   Haze
8:55 PM 33.8 °F 24.3 °F 26.6 °F 75% 29.78 in 5.0 mi South 13.8 mph 17.3 mph N/A   Haze
9:15 PM 33.8 °F 23.9 °F 26.6 °F 75% 29.78 in 5.0 mi South 15.0 mph - N/A   Haze
9:35 PM 32.0 °F 21.6 °F 26.6 °F 80% 29.78 in 5.0 mi South 15.0 mph - N/A   Haze
9:55 PM 32.0 °F 21.2 °F 26.6 °F 80% 29.76 in 5.0 mi South 16.1 mph - N/A   Haze
10:15 PM 32.0 °F 22.1 °F 26.6 °F 80% 29.77 in 5.0 mi South 13.8 mph - N/A   Haze
10:35 PM 33.8 °F 23.9 °F 26.6 °F 75% 29.77 in 5.0 mi South 15.0 mph - N/A   Haze
10:55 PM 33.8 °F 23.5 °F 28.4 °F 81% 29.76 in 5.0 mi South 16.1 mph - N/A   Haze
11:15 PM 33.8 °F 24.8 °F 28.4 °F 81% 29.74 in 5.0 mi South 12.7 mph 18.4 mph N/A   Haze
11:35 PM 33.8 °F 25.3 °F 28.4 °F 81% 29.73 in 5.0 mi South 11.5 mph - N/A   Haze
11:55 PM 33.8 °F 25.8 °F 28.4 °F 81% 29.72 in 5.0 mi South 10.4 mph - N/A   Haze